Location: site
(53.0000°N, 23.0500°E)
Time: 22:33:53
(UTC+01:00)

SAOCOM 1-A - Pass Details

Date: 24 January 2020
Orbit: 621 x 623 km, 97.9° (Epoch: 24 February)

Event Time Altitude Azimuth Distance (km) Brightness Sun altitude
Rises 04:23:52 0° 157° (SSE) 2,895 ? -26.7°
Reaches altitude 10° 04:26:03 10° 155° (SSE) 1,993 ? -26.4°
Maximum altitude 04:30:21 70° 73° (ENE) 669 ? -25.7°
Enters shadow 04:30:47 64° 33° (NNE) 694 ? -25.6°
